| time (UTC) | temp F | wind direction | speed knots | gust knots | rain 1hr in | rain 24hr in | rain mn in | humidity % | barometer mb |
| 20260504215004 | 77 | 220 | 2.6 | 8.7 | 0.00 | 0.00 | 0.00 | 30 | 1000.3 |
| 20260504214555 | 76 | 215 | 4.3 | 14.8 | 0.00 | 0.00 | 0.00 | 28 | 1001.7 |
| 20260504214504 | 77 | 209 | 5.2 | 14.8 | 0.00 | 0.00 | 0.00 | 30 | 1000.4 |
| 20260504213503 | 78 | 207 | 2.6 | 7.8 | 0.00 | 0.00 | 0.00 | 30 | 1000.4 |
| 20260504213107 | 77 | 276 | 4.3 | 12.2 | 0.00 | 0.00 | 0.00 | 29 | 1001.8 |
| 20260504213004 | 77 | 209 | 5.2 | 12.2 | 0.00 | 0.00 | 0.00 | 29 | 1000.5 |
| 20260504212503 | 77 | 202 | 4.3 | 8.7 | 0.00 | 0.00 | 0.00 | 30 | 1000.5 |
| 20260504212003 | 76 | 234 | 6.1 | 13.0 | 0.00 | 0.00 | 0.00 | 31 | 1000.5 |
| 20260504211551 | 76 | 199 | 4.3 | 11.3 | 0.00 | 0.00 | 0.00 | 31 | 1001.9 |
| 20260504211504 | 76 | 217 | 4.3 | 10.4 | 0.00 | 0.00 | 0.00 | 31 | 1000.5 |
| 20260504211004 | 77 | 236 | 5.2 | 11.3 | 0.00 | 0.00 | 0.00 | 29 | 1000.7 |
| 20260504210503 | 78 | 239 | 2.6 | 7.8 | 0.00 | 0.00 | 0.00 | 29 | 1000.9 |
| 20260504210048 | 77 | 264 | 2.6 | 12.2 | 0.00 | 0.00 | 0.00 | 30 | 1002.0 |
| 20260504205503 | 77 | 262 | 3.5 | 10.4 | 0.00 | 0.00 | 0.00 | 31 | 1000.8 |
| 20260504205003 | 77 | 247 | 7.0 | 15.6 | 0.00 | 0.00 | 0.00 | 30 | 1000.9 |
| 20260504204559 | 77 | 174 | 3.5 | 10.4 | 0.00 | 0.00 | 0.00 | 31 | 1002.2 |
| 20260504204503 | 77 | 248 | 4.3 | 10.4 | 0.00 | 0.00 | 0.00 | 32 | 1000.9 |
| 20260504204004 | 77 | 235 | 3.5 | 6.1 | 0.00 | 0.00 | 0.00 | 33 | 1001.0 |
| 20260504203504 | 76 | 284 | 4.3 | 11.3 | 0.00 | 0.00 | 0.00 | 31 | 1001.0 |
| 20260504203049 | 76 | 284 | 2.6 | 13.0 | 0.00 | 0.00 | 0.00 | 31 | 1002.3 |
| 20260504203003 | 77 | 224 | 2.6 | 10.4 | 0.00 | 0.00 | 0.00 | 31 | 1001.0 |
| 20260504202503 | 76 | 271 | 5.2 | 13.0 | 0.00 | 0.00 | 0.00 | 32 | 1001.1 |
| 20260504202004 | 77 | 250 | 6.1 | 11.3 | 0.00 | 0.00 | 0.00 | 31 | 1001.3 |
| 20260504201544 | 76 | 237 | 3.5 | 16.5 | 0.00 | 0.00 | 0.00 | 31 | 1002.5 |
| 20260504201503 | 76 | 243 | 3.5 | 13.0 | 0.00 | 0.00 | 0.00 | 32 | 1001.2 |
| 20260504201004 | 76 | 221 | 6.1 | 17.4 | 0.00 | 0.00 | 0.00 | 30 | 1001.4 |
| 20260504200503 | 76 | 208 | 5.2 | 13.9 | 0.00 | 0.00 | 0.00 | 32 | 1001.4 |
| 20260504200053 | 76 | 184 | 5.2 | 14.8 | 0.00 | 0.00 | 0.00 | 32 | 1002.7 |
| 20260504195504 | 76 | 229 | 5.2 | 14.8 | 0.00 | 0.00 | 0.00 | 32 | 1001.5 |
| 20260504195003 | 75 | 244 | 5.2 | 10.4 | 0.00 | 0.00 | 0.00 | 32 | 1001.5 |
| 20260504194549 | 75 | 228 | 5.2 | 14.8 | 0.00 | 0.00 | 0.00 | 32 | 1002.9 |
| 20260504194504 | 75 | 220 | 5.2 | 14.8 | 0.00 | 0.00 | 0.00 | 32 | 1001.8 |
| 20260504194004 | 77 | 240 | 4.3 | 13.0 | 0.00 | 0.00 | 0.00 | 32 | 1001.9 |
| 20260504193059 | 76 | 239 | 3.5 | 17.4 | 0.00 | 0.00 | 0.00 | 35 | 1003.0 |
| 20260504192504 | 74 | 278 | 5.2 | 17.4 | 0.00 | 0.00 | 0.00 | 35 | 1001.9 |
| 20260504192004 | 75 | 235 | 7.8 | 15.6 | 0.00 | 0.00 | 0.00 | 34 | 1002.1 |
| 20260504191548 | 75 | 204 | 7.0 | 11.3 | 0.00 | 0.00 | 0.00 | 31 | 1003.1 |
| 20260504191504 | 76 | 199 | 7.0 | 11.3 | 0.00 | 0.00 | 0.00 | 32 | 1002.0 |
| 20260504191004 | 75 | 198 | 3.5 | 11.3 | 0.00 | 0.00 | 0.00 | 36 | 1002.1 |
| 20260504190504 | 75 | 246 | 7.8 | 13.0 | 0.00 | 0.00 | 0.00 | 34 | 1002.2 |
| 20260504190053 | 76 | 201 | 4.3 | 14.8 | 0.00 | 0.00 | 0.00 | 35 | 1003.3 |
| 20260504190004 | 76 | 227 | 5.2 | 10.4 | 0.00 | 0.00 | 0.00 | 36 | 1002.2 |
| 20260504185504 | 75 | 267 | 4.3 | 14.8 | 0.00 | 0.00 | 0.00 | 36 | 1002.2 |
| 20260504185004 | 75 | 214 | 2.6 | 7.8 | 0.00 | 0.00 | 0.00 | 37 | 1002.2 |
| 20260504184544 | 73 | 209 | 4.3 | 14.8 | 0.00 | 0.00 | 0.00 | 36 | 1003.4 |
| 20260504184503 | 74 | 217 | 5.2 | 12.2 | 0.00 | 0.00 | 0.00 | 36 | 1002.3 |
| 20260504184004 | 75 | 223 | 7.0 | 14.8 | 0.00 | 0.00 | 0.00 | 38 | 1002.5 |
| 20260504183504 | 75 | 211 | 3.5 | 13.0 | 0.00 | 0.00 | 0.00 | 37 | 1002.5 |
| 20260504183055 | 75 | 274 | 5.2 | 9.6 | 0.00 | 0.00 | 0.00 | 38 | 1003.6 |
| 20260504183003 | 75 | 202 | 6.1 | 8.7 | 0.00 | 0.00 | 0.00 | 36 | 1002.6 |
| 20260504182503 | 75 | 206 | 2.6 | 7.0 | 0.00 | 0.00 | 0.00 | 38 | 1002.7 |
| 20260504182003 | 74 | 245 | 5.2 | 10.4 | 0.00 | 0.00 | 0.00 | 37 | 1002.7 |
| 20260504181546 | 74 | 271 | 2.6 | 12.2 | 0.00 | 0.00 | 0.00 | 37 | 1003.8 |
| 20260504181003 | 73 | 215 | 7.0 | 12.2 | 0.00 | 0.00 | 0.00 | 38 | 1002.8 |
| 20260504180504 | 73 | 220 | 7.0 | 15.6 | 0.00 | 0.00 | 0.00 | 37 | 1002.8 |
| 20260504180122 | 72 | 229 | 7.8 | 14.8 | 0.00 | 0.00 | 0.00 | 38 | 1003.9 |
| 20260504180004 | 73 | 231 | 8.7 | 14.8 | 0.00 | 0.00 | 0.00 | 38 | 1002.8 |
| 20260504175503 | 74 | 218 | 4.3 | 13.9 | 0.00 | 0.00 | 0.00 | 40 | 1002.9 |
| 20260504175004 | 74 | 217 | 4.3 | 12.2 | 0.00 | 0.00 | 0.00 | 40 | 1002.9 |
| 20260504174548 | 72 | 206 | 5.2 | 13.0 | 0.00 | 0.00 | 0.00 | 41 | 1004.0 |
| 20260504174504 | 73 | 238 | 6.1 | 12.2 | 0.00 | 0.00 | 0.00 | 40 | 1003.0 |
| 20260504174003 | 72 | 246 | 5.2 | 12.2 | 0.00 | 0.00 | 0.00 | 40 | 1003.0 |
| 20260504173503 | 72 | 225 | 4.3 | 10.4 | 0.00 | 0.00 | 0.00 | 41 | 1003.0 |
| 20260504173046 | 72 | 228 | 5.2 | 10.4 | 0.00 | 0.00 | 0.00 | 42 | 1004.2 |
| 20260504173003 | 72 | 219 | 5.2 | 10.4 | 0.00 | 0.00 | 0.00 | 40 | 1003.0 |
| 20260504172503 | 75 | 201 | 2.6 | 7.8 | 0.00 | 0.00 | 0.00 | 41 | 1003.0 |
| 20260504172004 | 71 | 209 | 3.5 | 13.0 | 0.00 | 0.00 | 0.00 | 43 | 1003.1 |
| 20260504171547 | 71 | 46 | 5.2 | 13.9 | 0.00 | 0.00 | 0.00 | 41 | 1004.2 |
| 20260504171504 | 71 | 259 | 5.2 | 13.9 | 0.00 | 0.00 | 0.00 | 40 | 1003.2 |
| 20260504171003 | 73 | 182 | 5.2 | 10.4 | 0.00 | 0.00 | 0.00 | 40 | 1003.2 |
| 20260504170503 | 72 | 231 | 3.5 | 10.4 | 0.00 | 0.00 | 0.00 | 43 | 1003.2 |
| 20260504151003 | 65 | 216 | 4.3 | 10.4 | 0.00 | 0.00 | 0.00 | 46 | 1004.2 |
| 20260504141004 | 63 | 232 | 5.2 | 10.4 | 0.00 | 0.00 | 0.00 | 47 | 1004.3 |
| 20260504140503 | 62 | 201 | 6.1 | 11.3 | 0.00 | 0.00 | 0.00 | 47 | 1004.3 |
| 20260504130503 | 59 | 214 | 5.2 | 10.4 | 0.00 | 0.00 | 0.00 | 48 | 1005.0 |
| 20260504100503 | 53 | 205 | 2.6 | 7.0 | 0.00 | 0.00 | 0.00 | 53 | 1005.0 |
| 20260504082004 | 51 | 199 | 2.6 | 2.6 | 0.00 | 0.00 | 0.00 | 57 | 1005.8 |
| 20260504081551 | 51 | 199 | 1.7 | 5.2 | 0.00 | 0.00 | 0.00 | 56 | 1006.7 |
| 20260504080504 | 51 | 211 | 1.7 | 2.6 | 0.00 | 0.00 | 0.00 | 57 | 1005.9 |
| 20260504044550 | 54 | 213 | 2.6 | 7.0 | 0.00 | 0.00 | 0.00 | 51 | 1007.9 |
| 20260504043059 | 54 | 187 | 1.7 | 5.2 | 0.00 | 0.00 | 0.00 | 50 | 1007.9 |
| 20260504041549 | 55 | 223 | 2.6 | 6.1 | 0.00 | 0.00 | 0.00 | 50 | 1007.9 |
| 20260504040056 | 55 | 236 | 1.7 | 5.2 | 0.00 | 0.00 | 0.00 | 50 | 1007.9 |
| 20260504034552 | 55 | 207 | 1.7 | 4.3 | 0.00 | 0.00 | 0.00 | 49 | 1007.8 |
| 20260504033053 | 56 | 206 | 2.6 | 5.2 | 0.00 | 0.00 | 0.00 | 48 | 1007.9 |
| 20260504031549 | 55 | 210 | 0.9 | 6.1 | 0.00 | 0.00 | 0.00 | 49 | 1007.9 |
| 20260504030049 | 55 | 220 | 1.7 | 5.2 | 0.00 | 0.00 | 0.00 | 50 | 1007.9 |
| 20260504024550 | 55 | 229 | 0.9 | 3.5 | 0.00 | 0.00 | 0.00 | 50 | 1008.0 |
| 20260504023504 | 56 | 211 | 1.7 | 2.6 | 0.00 | 0.00 | 0.00 | 51 | 1007.2 |
| 20260504023048 | 55 | 178 | 1.7 | 4.3 | 0.00 | 0.00 | 0.00 | 50 | 1008.2 |
| 20260504023003 | 56 | 212 | 1.7 | 2.6 | 0.00 | 0.00 | 0.00 | 50 | 1007.3 |
| 20260504021545 | 55 | 203 | 1.7 | 5.2 | 0.00 | 0.00 | 0.00 | 50 | 1008.3 |
| 20260504020054 | 55 | 260 | 2.6 | 7.0 | 0.00 | 0.00 | 0.00 | 50 | 1008.2 |
| 20260504014550 | 55 | 223 | 1.7 | 7.8 | 0.00 | 0.00 | 0.00 | 50 | 1008.1 |
| 20260504014003 | 56 | 209 | 2.6 | 7.0 | 0.00 | 0.00 | 0.00 | 51 | 1007.3 |
| 20260504013050 | 55 | 191 | 3.5 | 9.6 | 0.00 | 0.00 | 0.00 | 51 | 1008.2 |
| 20260504011549 | 55 | 234 | 1.7 | 9.6 | 0.00 | 0.00 | 0.00 | 54 | 1008.6 |
| 20260504010052 | 55 | 215 | 3.5 | 8.7 | 0.00 | 0.00 | 0.00 | 53 | 1008.5 |
| 20260504004550 | 54 | 221 | 3.5 | 9.6 | 0.00 | 0.00 | 0.00 | 55 | 1008.5 |
| 20260504003049 | 54 | 269 | 2.6 | 7.8 | 0.00 | 0.00 | 0.00 | 57 | 1008.9 |
| 20260504001544 | 54 | 215 | 0.9 | 6.1 | 0.00 | 0.00 | 0.00 | 55 | 1008.9 |
| 20260504000052 | 55 | 305 | 0.9 | 4.3 | 0.00 | 0.00 | 0.00 | 54 | 1008.7 |
| 20260503235004 | 56 | 341 | 1.7 | 5.2 | 0.00 | 0.00 | 0.00 | 52 | 1007.8 |
| 20260503234550 | 55 | 229 | 1.7 | 8.7 | 0.00 | 0.00 | 0.00 | 51 | 1008.6 |
| 20260503234003 | 56 | 200 | 1.7 | 6.1 | 0.00 | 0.00 | 0.00 | 51 | 1007.8 |
| 20260503233048 | 56 | 306 | 3.5 | 12.2 | 0.00 | 0.00 | 0.00 | 49 | 1008.7 |
| 20260503231546 | 57 | 202 | 4.3 | 13.9 | 0.00 | 0.00 | 0.00 | 45 | 1008.3 |
| 20260503224546 | 58 | 245 | 2.6 | 15.6 | 0.00 | 0.00 | 0.00 | 42 | 1008.0 |
| 20260503224003 | 59 | 279 | 5.2 | 15.6 | 0.00 | 0.00 | 0.00 | 41 | 1007.3 |
| 20260503223052 | 58 | 223 | 3.5 | 12.2 | 0.00 | 0.00 | 0.00 | 40 | 1008.0 |
| 20260503221553 | 58 | 307 | 2.6 | 8.7 | 0.00 | 0.00 | 0.00 | 42 | 1007.8 |
| 20260503220053 | 58 | 291 | 2.6 | 7.8 | 0.00 | 0.00 | 0.00 | 42 | 1008.1 |